Weather History for KHLC - May, 2012

Change the Weather History Date:

Thursday, May 3, 2012

  Actual Average Record
Temperature  
Mean Temperature 73 °F 58 °F  
Max Temperature 84 °F 71 °F 92 °F (1949)
Min Temperature 61 °F 45 °F 26 °F (1907)
Cooling Degree Days 8    
Growing Degree Days 23 (Base 50)    
Moisture  
Dew Point 61 °F    
Average Humidity 71    
Maximum Humidity 94    
Minimum Humidity 49    
Precipitation  
Precipitation 0.00 in 0.11 in 0.62 in (2001)
Month to date precipitation 0.00 0.33  
Year to date precipitation 3.87 5.05  
Sea Level Pressure  
Sea Level Pressure 29.73 in    
Wind  
Wind Speed 6 mph (NE)    
Max Wind Speed 16 mph    
Max Gust Speed 24 mph    
Visibility 9 miles    
Events      
T = Trace of Precipitation, MM = Missing Value Source: NWS Daily Summary

Daily Weather History Graph

Daily Weather History Graph

Search for Another Location

Airport or City:

Trip Planner

Search our weather history database for the weather conditions in past years. The results will help you decide how hot, cold, wet, or windy it might be!

Date:

Astronomy

May. 03, 2012 Rise Set
Actual Time 6:37 AM CDT 8:35 PM CDT
Civil Twilight 6:08 AM CDT 9:04 PM CDT
Nautical Twilight 5:32 AM CDT 9:40 PM CDT
Astronomical Twilight 4:54 AM CDT 10:18 PM CDT
Moon 6:02 PM CDT (5/3) 4:41 AM CDT (5/3)
Length of Visible Light 14h 56m
Length of Day
13h 57m
Waxing Gibbous, 91% of the Moon is Illuminated
May 3
Waxing Gibbous
May 5
Full
May 12
Last Quarter
May 20
New
May 28
First Quarter

Hourly Weather History & Observations

Time (CDT) Temp. Heat Index Dew Point Humidity Pressure Visibility Wind Dir Wind Speed Gust Speed Precip Events Conditions
12:53 AM 69.1 °F - 64.9 °F 87% 29.63 in 8.0 mi Calm Calm - N/A   Clear
1:53 AM 66.0 °F - 64.0 °F 93% 29.62 in 7.0 mi Calm Calm - N/A   Clear
2:31 AM 66.2 °F - 64.4 °F 94% 29.69 in 7.0 mi North 4.6 mph - N/A   Mostly Cloudy
2:53 AM 66.9 °F - 64.9 °F 93% 29.63 in 5.0 mi North 5.8 mph - N/A   Overcast
3:39 AM 68.0 °F - 64.4 °F 88% 29.73 in 8.0 mi North 6.9 mph - N/A   Overcast
3:48 AM 68.0 °F - 64.4 °F 88% 29.73 in 8.0 mi North 5.8 mph - N/A   Mostly Cloudy
3:53 AM 68.0 °F - 64.9 °F 90% 29.66 in 7.0 mi NNW 11.5 mph - N/A   Mostly Cloudy
4:53 AM 64.0 °F - 51.1 °F 63% 29.70 in 10.0 mi North 16.1 mph 24.2 mph N/A   Partly Cloudy
5:53 AM 63.0 °F - 48.0 °F 58% 29.71 in 10.0 mi North 12.7 mph - N/A   Clear
6:53 AM 62.1 °F - 48.0 °F 60% 29.72 in 10.0 mi North 10.4 mph - N/A   Clear
7:53 AM 63.0 °F - 48.9 °F 60% 29.75 in 10.0 mi North 10.4 mph - N/A   Clear
8:53 AM 66.9 °F - 52.0 °F 59% 29.76 in 10.0 mi North 12.7 mph 19.6 mph N/A   Clear
9:53 AM 71.1 °F - 57.0 °F 61% 29.78 in 10.0 mi NE 9.2 mph - N/A   Clear
10:53 AM 75.0 °F - 63.0 °F 66% 29.79 in 10.0 mi NE 9.2 mph - N/A   Clear
11:53 AM 78.1 °F - 63.0 °F 60% 29.79 in 10.0 mi NE 9.2 mph - N/A   Partly Cloudy
12:53 PM 80.1 °F 81.7 °F 64.0 °F 58% 29.78 in 10.0 mi North 6.9 mph - N/A   Clear
3:53 PM 84.0 °F 85.4 °F 64.0 °F 51% 29.75 in 10.0 mi ENE 10.4 mph - N/A   Partly Cloudy
4:53 PM 82.9 °F 84.0 °F 63.0 °F 51% 29.74 in 10.0 mi ESE 8.1 mph - N/A   Clear
5:53 PM 84.0 °F 84.9 °F 63.0 °F 49% 29.73 in 10.0 mi ENE 6.9 mph - N/A   Clear
6:53 PM 82.0 °F 83.0 °F 62.1 °F 51% 29.75 in 10.0 mi ENE 5.8 mph - N/A   Clear
7:53 PM 78.1 °F - 64.9 °F 64% 29.75 in 10.0 mi East 3.5 mph - N/A   Clear
8:53 PM 72.0 °F - 64.0 °F 76% 29.76 in 10.0 mi East 3.5 mph - N/A   Clear
9:53 PM 68.0 °F - 63.0 °F 84% 29.78 in 10.0 mi ENE 4.6 mph - N/A   Clear
10:53 PM 66.9 °F - 63.0 °F 87% 29.79 in 9.0 mi East 5.8 mph - N/A   Clear
11:53 PM 66.0 °F - 63.0 °F 90% 29.79 in 9.0 mi NE 3.5 mph - N/A   Clear